Regional Weather Roundup
Issued by NWS Sterling, VA

Home | Current Version | Previous Version | Graphics & Text | Print | Product List | Glossary On
Versions: 1 2 3 4 5 6 7 8 9 10 11 12 13 14 15 16 17 18 19 20 21 22 23 24 25 26 27 28 29 30 31 32 33 34 35 36 37 38 39 40 41 42 43 44 45 46 47 48 49 50
000
ASUS41 KLWX 280510
RWRLWX

REGIONAL WEATHER ROUNDUP
NATIONAL WEATHER SERVICE BALTIMORE MD/WASHINGTON DC
100 AM EDT THU AUG 28 2014

Note: "FAIR" indicates few or no clouds below 12,000 feet
with no significant weather and/or obstructions to visibility.
 TC=TEMPERATURE CELSIUS

 * =Non NWS site. Station does not report precipitation (e.g. rain,
    snow, etc.), thunder, or fog.

DCZ001-MDZ009-015-VAZ040>042-051-053>054-280600-
WASHINGTON METRO
  /KDAA//-FT BELVOIR

CITY           SKY/WX    TMP DP  RH WIND       PRES   REMARKS
WASHINGTON NAT PTCLDY    79  66  64 S5        29.91F
DULLES         MOCLDY    73  69  87 NW3       29.92F
ANDREWS AFB    PTCLDY    76  68  77 W7        29.91F
QUANTICO       PTCLDY    75  68  78 W3        29.92F
COLLEGE PARK*  PTCLDY    73  70  88 CALM      29.90F
LEESBURG*      PTCLDY    77  72  83 N5        29.94S
MANASSAS*      PTCLDY    72  72 100 CALM      29.92F
GAITHERSBURG*  PTCLDY    72  66  83 CALM      29.96F

$$

MDZ006>007-011-014-280600-
BALTIMORE METRO

CITY           SKY/WX    TMP DP  RH WIND       PRES   REMARKS
BWI AIRPORT    PTCLDY    75  68  78 W6        29.89F
MD SCIENCE CTR   N/A     80  68  66 MISG      29.90S
MARTIN STATE   PTCLDY    77  72  83 SW5       29.90F
ANNAPOLIS        N/A     77  68  73 NW3       29.89F
FORT MEADE*    PTCLDY    68  66  94 CALM      29.92F

$$

MDZ012-015-019>023-280600-
MARYLAND EASTERN SHORE

CITY           SKY/WX    TMP DP  RH WIND       PRES   REMARKS
OCEAN CITY     CLEAR     64  62  93 CALM      29.89F
SALISBURY      CLEAR     70  64  81 CALM      29.89F
BAY BRIDGE AP*   N/A     77  68  73 W3        29.89F
CAMBRIDGE*     CLEAR     72  68  88 CALM      29.89F
EASTON*        CLEAR     73  69  88 CALM      29.93F

$$

MDZ017>025-280600-
SOUTHERN MARYLAND

CITY           SKY/WX    TMP DP  RH WIND       PRES   REMARKS
PATUXENT RIVER CLEAR     71  66  84 W5        29.89F
ST INIGOES     CLEAR     73  66  78 W6        29.90F
LEONARDTOWN*   CLEAR     70  64  83 W5        29.92F

$$

MDZ003>005-280600-
NORTH CENTRAL MARYLAND

CITY           SKY/WX    TMP DP  RH WIND       PRES   REMARKS
FREDERICK*     PTCLDY   N/A N/A N/A CALM      29.95F
HAGERSTOWN APT MOCLDY    76  68  76 NW6       29.96S
WESTMINSTER*   PTCLDY    77  72  83 W5        29.94F

$$

MDZ501>502-280600-
WESTERN MARYLAND

CITY           SKY/WX    TMP DP  RH WIND       PRES   REMARKS
OAKLAND*       FOG       64 N/A N/A N8        30.11S VSB 1/4
CUMBERLAND*    PTCLDY    75  68  78 NW3       30.03S

$$

VAZ025>031-280600-
SHENANDOAH VALLEY

CITY           SKY/WX    TMP DP  RH WIND       PRES   REMARKS
WINCHESTER*    PTCLDY    77  68  73 N7        29.96F
STAUNTON*      MOCLDY    69  65  87 CALM      30.01F

$$

WVZ021-048>050-054>055-280600-
EASTERN WEST VIRGINIA PANHANDLE

CITY           SKY/WX    TMP DP  RH WIND       PRES   REMARKS
MARTINSBURG    PTCLDY    79  66  64 N7        29.96S
PETERSBURG*    NOT AVBL

$$

VAZ036>039-050-280600-
CENTRAL FOOTHILLS

CITY           SKY/WX    TMP DP  RH WIND       PRES   REMARKS
CHARLOTTESVILL MOCLDY    70  68  93 CALM      29.95F
ORANGE*        MOCLDY    72  64  78 CALM      29.95F

$$

VAZ055>057-280600-
NORTH AND CENTRAL PIEDMONT

CITY           SKY/WX    TMP DP  RH WIND       PRES   REMARKS
FREDERICKSBRG* PTCLDY    74  67  79 CALM      29.91F
STAFFORD*      PTCLDY    69  69 100 CALM      29.96F

$$

NCZ024-NYZ072-PAZ021-071-VAZ022-071-280600-
OTHER REGIONAL OBSERVATIONS

CITY           SKY/WX    TMP DP  RH WIND       PRES   REMARKS
NEW YORK CITY  PTCLDY    78  65  63 NW7       29.90S
PHILADELPHIA   CLOUDY    77  68  73 W7        29.88F
PITTSBURGH     MOCLDY    66  59  78 N13       30.07F
ROANOKE        PTCLDY    72  64  76 W5        30.02F
RICHMOND       PTCLDY    76  63  64 W5        29.92F
RALEIGH        PTCLDY    66  61  84 CALM      29.99S

$$

ANZ530>537-280600-
MARINE OBSERVATIONS

STATION/POSITION TIME  TEMP    WIND        PRES
                       AIR SEA DIR/SP/G
                 (UTC) (F)     (DEG/KT/KT) (MB)
THOMAS PT LIGHT  0500   78 79  280/ 11/ 12 1013.0F
BALT KEY BRIDGE  0500   84     260/  4/  4 1012.1F
COVE POINT       0500   77     280/  9/ 11 1012.1F
LEWISETTA        0500   75 80  270/  8/ 10 1012.2R
SOLOMONS ISLAND  0500      81                N/A
PINEY POINT      0500          300/  7/  9   N/A

$$




USA.gov is the U.S. government's official web portal to all federal, state and local government web resources and services.